Location: Antioch Baptist Church
(32.6696°N, 85.7327°W)
Time: 11:25:50
(UTC+00:00)

SPOT 3 Rocket - Pass Details

Date: 14 July 2020
Orbit: 779 x 795 km, 98.8° (Epoch: 09 August)

Event Time Altitude Azimuth Distance (km) Brightness Sun altitude
Exits shadow 01:51:51 12° 153° (SSE) 2,231 5.4 -11.6°
Maximum altitude 01:56:39 62° 74° (ENE) 891 3.7 -12.4°
Drops below altitude 10° 02:01:48 10° 355° (N) 2,368 6.6 -13.3°
Sets 02:04:09 0° 352° (N) 3,301 7.5 -13.7°
